DW8494 Seminole FL US current weather conditions

sailwx.info

Wind from 327 at 6 knots gusting 13

Air temperature 26.1° C
Dewpoint 22.8° C

Last reported at 2019-Sep-20 14:00 UTC.
Time now 2019-Sep-20 14:47 UTC

Location: N 27°51' W 082°47'.
View on Google Maps.

See reports from other nearby stations

  
Tides and Currents Weather Stations Pressure Air Temp Water Temp Dewpoint Dewpoint Depression Visibility Wind Speed Wind Dir Waves Ship Positions
date/time (UTC)wind fromknots sea level pressurealtimeterstation pressurevisibilityair tempwater tempwave heightnotes
2019-Sep-20 14:00 327 6 gusting 13 26.1
2019-Sep-20 13:45 049 6 gusting 13 26.1
2019-Sep-20 13:30 055 3 gusting 10 25.6
2019-Sep-20 13:15 360 2 gusting 10 25.0
2019-Sep-20 13:00 023 3 gusting 10 24.4
2019-Sep-20 12:45 022 1 gusting 10 24.4
2019-Sep-20 12:30 050 1 gusting 10 23.9
2019-Sep-20 12:15 348 2 gusting 6 23.3
2019-Sep-20 12:03 355 0 gusting 6 22.8
2019-Sep-20 11:47 030 1 gusting 6 22.8
2019-Sep-20 11:32 360 0 gusting 9 22.8
2019-Sep-20 11:16 026 3 gusting 10 22.8
2019-Sep-20 11:01 348 2 gusting 8 22.8
2019-Sep-20 10:46 355 2 gusting 8 22.8
2019-Sep-20 10:31 350 1 gusting 10 22.8
2019-Sep-20 10:17 346 3 gusting 10 22.8
2019-Sep-20 10:01 348 2 gusting 8 22.8
2019-Sep-20 09:47 346 2 gusting 11 22.8
2019-Sep-20 09:31 340 1 gusting 8 22.8
2019-Sep-20 09:16 024 0 gusting 5 22.8
2019-Sep-20 09:01 360 1 gusting 5 22.2
2019-Sep-20 08:46 342 0 gusting 6 22.2
2019-Sep-20 08:31 360 22.2
2019-Sep-20 08:17 355 0 gusting 8 22.2
2019-Sep-20 08:01 355 1 gusting 6 22.8
2019-Sep-20 07:46 076 22.8
2019-Sep-20 07:31 355 0 gusting 8 22.8
2019-Sep-20 07:16 041 1 gusting 7 22.8
2019-Sep-20 07:01 355 2 gusting 7 22.8
2019-Sep-20 06:45 015 1 gusting 6 22.8
2019-Sep-20 06:31 012 0 gusting 7 22.8
2019-Sep-20 06:16 012 22.8
2019-Sep-20 06:00 336 0 gusting 7 23.3
2019-Sep-20 05:45 360 1 gusting 7 23.3
2019-Sep-20 05:30 053 0 gusting 5 23.3
2019-Sep-20 05:15 360 1 gusting 8 23.3
2019-Sep-20 05:00 334 2 gusting 13 23.3
2019-Sep-20 04:45 360 2 gusting 8 23.9
2019-Sep-20 04:30 327 1 gusting 9 23.9
2019-Sep-20 04:15 350 1 gusting 9 23.9
2019-Sep-20 04:00 360 0 gusting 5 23.9
2019-Sep-20 03:45 021 0 gusting 7 23.9
2019-Sep-20 03:30 027 2 gusting 7 24.4
2019-Sep-20 03:15 355 1 gusting 9 24.4
2019-Sep-20 03:01 355 2 gusting 8 24.4
2019-Sep-20 02:47 005 0 gusting 7 25.0
2019-Sep-20 02:31 020 0 gusting 6 25.0
2019-Sep-20 02:17 347 25.6
2019-Sep-20 02:02 052 1 gusting 6 25.6
2019-Sep-20 01:47 005 2 gusting 8 25.6
2019-Sep-20 01:32 355 4 gusting 10 25.6
2019-Sep-20 01:16 347 0 gusting 6 25.6
2019-Sep-20 01:01 341 2 gusting 10 25.6
2019-Sep-20 00:46 355 1 gusting 6 26.1
2019-Sep-20 00:31 340 1 gusting 8 26.1
2019-Sep-20 00:16 344 1 gusting 8 26.1
2019-Sep-20 00:01 022 2 gusting 8 26.7
2019-Sep-19 23:46 014 1 gusting 8 26.7
2019-Sep-19 23:31 360 2 gusting 8 26.7
2019-Sep-19 23:16 348 3 gusting 11 26.7
2019-Sep-19 23:01 355 2 gusting 8 27.2
2019-Sep-19 22:45 355 2 gusting 8 27.8
2019-Sep-19 22:31 348 3 gusting 12 28.3
2019-Sep-19 22:16 355 5 gusting 12 28.3
2019-Sep-19 22:01 009 5 gusting 13 28.9
2019-Sep-19 21:46 332 6 gusting 12 29.4
2019-Sep-19 21:30 355 5 gusting 16 30.0
2019-Sep-19 21:16 012 4 gusting 10 30.6
2019-Sep-19 21:00 349 1 gusting 9 30.6
2019-Sep-19 20:46 347 5 gusting 14 31.1
2019-Sep-19 20:31 035 3 gusting 10 31.1
2019-Sep-19 20:15 005 5 gusting 10 30.6
2019-Sep-19 20:00 005 4 gusting 10 31.1
2019-Sep-19 19:45 355 4 gusting 11 31.7
2019-Sep-19 19:30 320 0 gusting 11 31.7
2019-Sep-19 19:15 032 4 gusting 12 31.1
2019-Sep-19 19:00 052 5 gusting 13 31.1
2019-Sep-19 18:45 332 3 gusting 12 30.6
2019-Sep-19 18:30 047 3 gusting 12 31.1
2019-Sep-19 18:15 355 3 gusting 12 30.6
2019-Sep-19 18:00 072 5 gusting 13 30.6
2019-Sep-19 17:45 061 5 gusting 12 30.0
2019-Sep-19 17:30 022 5 gusting 13 30.0
2019-Sep-19 17:15 074 4 gusting 11 30.0
2019-Sep-19 17:00 036 4 gusting 12 30.6
2019-Sep-19 16:47 071 4 gusting 13 30.0
2019-Sep-19 16:33 030 4 gusting 9 30.0
2019-Sep-19 16:17 065 5 gusting 11 28.9
2019-Sep-19 16:01 329 5 gusting 10 29.4
2019-Sep-19 15:46 032 4 gusting 12 28.9
2019-Sep-19 15:31 339 5 gusting 11 28.9
2019-Sep-19 15:16 005 2 gusting 10 28.9
2019-Sep-19 15:01 042 4 gusting 9 28.3
2019-Sep-19 14:46 046 6 gusting 13 27.8
2019-Sep-19 14:31 034 3 gusting 11 27.8
2019-Sep-19 14:16 024 2 gusting 7 27.2
2019-Sep-19 14:01 072 3 gusting 9 27.2
2019-Sep-19 13:45 355 1 gusting 9 26.7
2019-Sep-19 13:30 079 1 gusting 10 26.1
2019-Sep-19 13:16 039 4 gusting 9 26.7
2019-Sep-19 13:00 049 1 gusting 8 26.1
2019-Sep-19 12:45 045 0 gusting 4 25.0
2019-Sep-19 12:30 055 24.4
2019-Sep-19 12:15 340 24.4
2019-Sep-19 12:00 048 1 gusting 5 23.9
2019-Sep-19 11:45 028 23.9
2019-Sep-19 11:32 030 0 gusting 6 23.9
2019-Sep-19 11:17 061 1 gusting 4 23.9
2019-Sep-19 11:02 011 0 gusting 4 23.9
2019-Sep-19 10:46 052 0 gusting 4 23.9
2019-Sep-19 10:30 078 23.9
2019-Sep-19 10:15 044 0 gusting 4 23.9
2019-Sep-19 10:00 009 1 gusting 6 24.4
2019-Sep-19 09:45 028 1 gusting 7 24.4
2019-Sep-19 09:30 047 3 gusting 7 24.4
2019-Sep-19 09:15 031 2 gusting 7 24.4
2019-Sep-19 09:00 063 2 gusting 9 24.4
2019-Sep-19 08:45 057 1 gusting 11 24.4
2019-Sep-19 08:30 017 1 gusting 6 24.4
2019-Sep-19 08:15 058 0 gusting 6 25.0
2019-Sep-19 08:00 005 2 gusting 7 25.0
2019-Sep-19 07:45 028 2 gusting 8 25.0
2019-Sep-19 07:30 014 3 gusting 9 25.0
2019-Sep-19 07:02 047 2 gusting 8 25.0
2019-Sep-19 06:47 043 2 gusting 8 25.0
2019-Sep-19 06:31 040 2 gusting 8 25.6
2019-Sep-19 06:16 018 0 gusting 5 25.6
2019-Sep-19 06:01 055 1 gusting 8 25.6
2019-Sep-19 05:46 039 1 gusting 5 25.6
2019-Sep-19 05:31 041 25.6
2019-Sep-19 05:16 051 1 gusting 7 25.6
2019-Sep-19 05:01 053 3 gusting 10 25.6
2019-Sep-19 04:46 022 2 gusting 7 26.1
2019-Sep-19 04:31 014 2 gusting 7 26.1
2019-Sep-19 04:16 049 26.1
2019-Sep-19 04:00 064 2 gusting 6 26.7
2019-Sep-19 03:46 069 2 gusting 9 26.7
2019-Sep-19 03:30 078 3 gusting 13 26.7
2019-Sep-19 03:16 043 3 gusting 7 26.7
2019-Sep-19 03:00 049 2 gusting 8 26.7
2019-Sep-19 02:46 050 2 gusting 7 26.7
2019-Sep-19 02:30 005 26.7
2019-Sep-19 02:15 028 0 gusting 6 26.7
2019-Sep-19 02:00 048 0 gusting 3 26.7
2019-Sep-19 01:46 355 26.7
2019-Sep-19 01:30 032 26.7
2019-Sep-19 01:15 032 26.7
2019-Sep-19 01:01 073 0 gusting 5 26.7
2019-Sep-19 00:46 059 26.7
2019-Sep-19 00:30 061 27.2
2019-Sep-19 00:15 070 2 gusting 11 27.8
2019-Sep-19 00:00 025 2 gusting 8 28.9
2019-Sep-18 23:46 042 0 gusting 6 29.4
2019-Sep-18 23:31 017 2 gusting 6 30.0
2019-Sep-18 23:15 350 30.6
2019-Sep-18 23:00 294 31.1
2019-Sep-18 22:45 284 31.7
2019-Sep-18 22:30 275 1 gusting 6 32.2
2019-Sep-18 22:15 275 1 gusting 6 32.8
2019-Sep-18 22:00 280 1 gusting 6 32.8
2019-Sep-18 21:45 228 1 gusting 5 33.3
2019-Sep-18 21:31 281 2 gusting 6 33.3
2019-Sep-18 21:15 204 1 gusting 6 33.3
2019-Sep-18 21:00 234 0 gusting 6 33.3
2019-Sep-18 20:45 227 0 gusting 5 33.9
2019-Sep-18 20:30 230 1 gusting 7 33.9
2019-Sep-18 20:15 269 2 gusting 7 33.9
2019-Sep-18 20:00 207 2 gusting 8 33.9
2019-Sep-18 19:45 201 4 gusting 7 34.4
2019-Sep-18 19:30 225 3 gusting 8 34.4
2019-Sep-18 19:15 209 3 gusting 8 34.4
2019-Sep-18 19:00 221 5 gusting 8 33.9
2019-Sep-18 18:45 218 4 gusting 8 34.4
2019-Sep-18 18:31 215 4 gusting 7 34.4
2019-Sep-18 18:16 219 3 gusting 8 35.0
2019-Sep-18 18:02 230 4 gusting 7 35.6
2019-Sep-18 17:47 019 35.0
2019-Sep-18 17:32 355 0 gusting 3 34.4
2019-Sep-18 17:16 022 33.3
2019-Sep-18 17:02 068 0 gusting 5 33.3
2019-Sep-18 16:46 019 0 gusting 4 32.8
2019-Sep-18 16:31 022 0 gusting 7 32.8
2019-Sep-18 16:16 087 2 gusting 6 32.2
2019-Sep-18 16:01 346 1 gusting 5 32.2
2019-Sep-18 15:46 009 1 gusting 5 32.2
2019-Sep-18 15:31 355 1 gusting 5 31.7
2019-Sep-18 15:15 063 2 gusting 5 31.1
2019-Sep-18 15:00 078 1 gusting 6 31.1
2019-Sep-18 14:45 010 0 gusting 4 30.6
2019-Sep-18 14:30 011 0 gusting 3 30.0
2019-Sep-18 14:17 037 0 gusting 5 29.4
2019-Sep-18 14:02 061 0 gusting 4 28.9